Wind_Speed
13 13 13 13 14 15 15 15 15 15 15 16 16 16 17 17 18 18 18 19 19 20 20 20 20 20 20 20 21 21 20 20 20 21 20 21 21 22
15 15 14 15 15 15 16 16 16 16 16 16 17 18 18 19 19 19 20 20 20 21 21 21 21 21 21 21 21 21 21 21 21 22 21 21 22 23
16 16 16 16 16 16 17 18 18 18 18 18 18 19 19 20 20 20 21 21 21 22 22 22 22 21 21 22 21 22 22 22 23 23 22 22 22 23
16 17 17 17 18 19 19 19 20 20 20 20 20 21 22 22 22 22 23 23 23 23 23 23 23 23 22 22 22 22 23 23 23 23 23 23 23 23
18 18 19 19 20 20 21 21 21 21 22 22 23 23 24 24 23 24 24 25 25 24 24 24 24 24 24 23 23 23 24 24 23 23 23 23 24 24
20 20 19 19 20 21 21 22 22 23 23 23 24 24 25 25 25 25 25 26 25 26 26 25 25 24 24 24 24 23 23 24 23 24 24 24 24 24
20 20 21 20 21 22 22 22 23 24 24 24 25 25 25 25 26 25 26 26 26 26 26 26 25 25 25 25 25 24 24 24 24 24 24 24 24 25
21 21 22 21 21 22 22 23 24 24 25 25 26 26 26 26 26 26 26 25 26 26 26 26 26 26 26 26 26 25 25 24 24 24 24 24 24 25
22 22 22 22 23 23 23 23 24 25 26 26 26 26 26 26 27 27 26 25 25 25 25 25 25 26 26 26 26 25 25 24 24 24 24 25 25 25
22 23 23 23 23 24 25 25 26 26 27 27 26 27 27 27 27 28 26 25 25 25 25 25 25 25 25 26 25 24 24 24 24 24 25 25 26 25
22 23 24 24 24 25 26 26 27 27 27 26 26 26 27 27 27 27 26 26 25 24 24 24 23 24 24 24 24 23 23 23 24 24 25 25 26 26
23 23 24 24 25 25 26 27 27 28 27 27 26 26 26 27 27 27 26 24 23 23 23 23 23 24 24 24 23 23 23 24 24 25 25 25 25 26
24 25 25 25 25 26 27 27 27 27 27 28 27 27 27 27 27 26 25 24 24 23 23 22 23 23 24 24 24 24 24 24 24 25 25 25 25 26
26 26 26 26 26 26 27 27 27 26 27 27 28 28 28 27 27 26 24 24 24 23 23 23 23 23 24 24 24 25 26 26 26 26 25 25 25 25
26 26 26 26 26 27 27 27 26 26 27 27 27 27 27 27 27 27 26 25 25 24 23 24 23 24 24 25 24 25 26 26 26 26 26 26 25 25
28 29 29 28 27 27 27 27 27 27 28 27 27 27 27 27 27 27 26 26 26 25 24 24 24 24 24 24 24 25 26 25 25 26 26 26 26 25
29 29 29 28 28 28 27 27 27 27 28 27 27 27 27 27 27 27 26 26 25 24 24 24 24 24 24 24 24 25 26 26 26 26 26 26 26 26
29 30 29 29 29 29 28 27 27 27 27 27 27 27 27 27 27 26 26 25 24 24 24 24 24 24 25 25 25 26 26 25 25 25 25 25 25 25
30 30 30 29 30 29 29 28 28 28 27 27 27 27 26 26 26 25 25 24 24 24 25 25 25 25 26 26 26 25 25 25 24 24 25 25 25 25
30 30 30 30 30 29 29 28 28 28 28 28 27 26 25 25 25 25 24 24 24 24 25 26 26 26 26 26 26 26 25 24 24 24 24 24 25 24
31 31 31 31 30 30 29 28 28 27 27 27 27 26 26 25 25 25 25 25 26 25 25 26 26 26 26 26 26 25 25 24 24 24 24 24 24 23
30 30 31 31 30 30 29 29 28 27 27 26 25 25 25 25 25 25 26 26 26 25 25 25 26 25 25 25 25 25 24 24 23 23 23 23 23 22
30 31 31 31 30 30 30 29 28 28 27 27 26 26 26 26 26 26 26 25 25 24 24 25 26 26 25 25 25 24 24 24 24 24 22 22 22 22
Wind_Direction
283 283 284 286 288 291 294 296 296 297 298 296 295 294 292 293 294 295 294 296 296 295 293 292 291 289 287 285 282 281 279 277 275 275 275 274 272 271
285 283 283 285 288 290 293 295 297 296 294 294 295 296 295 293 294 295 294 294 295 295 294 293 292 290 288 287 284 281 281 280 279 279 276 278 275 273
285 281 281 284 287 289 291 291 293 295 294 293 294 294 295 292 291 292 293 294 295 293 292 293 291 290 289 289 287 283 280 280 280 279 281 280 278 275
283 283 282 284 286 288 289 290 292 293 294 292 293 295 294 293 291 292 292 293 294 294 291 291 290 290 289 289 288 284 281 280 280 279 280 281 281 279
280 282 283 285 287 288 289 288 289 290 292 292 293 294 295 294 293 292 293 293 293 293 291 289 289 288 287 288 287 284 282 281 280 280 280 281 281 280
280 282 285 286 288 289 289 290 288 288 290 292 293 294 294 293 294 294 293 291 292 290 288 287 287 286 285 287 287 285 283 283 280 279 280 280 280 279
280 281 283 285 287 289 290 290 289 288 289 291 291 291 293 293 293 293 294 291 290 288 287 287 286 285 285 287 287 285 283 281 279 279 278 279 280 279
281 280 282 284 287 289 291 290 290 292 291 290 290 291 292 293 293 295 294 292 291 289 288 286 285 285 286 286 286 285 282 280 278 278 278 278 280 280
281 281 283 286 287 289 290 291 292 292 293 294 292 292 292 293 293 296 296 293 291 290 288 287 286 285 285 286 286 285 281 278 277 277 277 278 280 280
283 283 285 287 289 289 290 292 292 292 292 292 293 294 294 293 293 295 295 294 292 291 289 287 286 286 285 285 283 283 281 279 278 277 278 278 279 280
287 287 288 289 290 292 292 294 294 295 296 295 294 294 294 295 295 295 294 295 294 292 290 288 287 287 287 286 284 283 282 281 281 280 279 279 279 279
288 289 289 290 290 291 292 294 294 294 294 295 295 294 292 294 296 296 295 294 293 292 289 288 289 289 288 286 284 283 284 283 283 282 280 279 279 280
287 288 288 289 290 290 292 293 294 293 293 294 294 295 294 294 297 297 295 292 292 293 291 290 291 291 291 289 286 283 283 284 285 285 283 280 281 280
285 287 287 289 291 293 295 296 295 293 293 293 293 292 292 293 295 296 294 293 292 291 290 290 290 290 290 291 288 285 284 284 284 285 285 283 281 281
285 286 288 289 289 291 293 295 295 294 294 293 292 292 292 292 293 295 293 292 290 288 289 289 289 290 292 292 289 287 286 284 284 284 284 283 283 283
284 285 288 289 288 290 291 291 293 293 293 294 291 291 291 292 293 294 292 291 290 288 287 287 287 288 291 291 290 289 286 284 283 283 283 283 283 284
286 287 288 288 289 290 291 291 292 292 292 291 291 290 290 291 291 290 290 290 290 288 289 287 287 289 291 291 290 290 288 285 282 281 282 283 282 283
284 287 288 288 288 289 289 290 291 292 291 289 290 291 292 291 291 290 290 290 290 290 290 290 289 290 290 290 290 289 287 286 284 284 284 284 284 284
282 284 287 287 288 288 287 288 290 290 290 291 292 292 292 293 293 292 290 289 290 290 290 290 290 290 290 290 289 289 288 286 284 284 284 285 285 285
281 282 284 287 287 287 286 287 288 288 289 290 290 290 291 292 293 293 292 291 292 292 290 290 290 289 290 291 291 289 287 285 285 285 285 285 286 285
279 280 282 284 285 286 285 285 286 287 288 288 288 288 290 291 291 290 289 289 290 290 290 291 291 290 290 291 291 290 287 284 285 286 286 286 284 283
277 278 281 283 285 287 285 285 285 286 288 288 288 289 289 289 290 291 289 287 287 287 288 291 291 290 290 291 292 291 289 286 286 287 287 286 283 283
277 278 281 283 283 285 285 284 284 286 287 287 288 287 287 288 290 291 290 287 285 285 287 289 290 290 290 291 291 290 289 287 287 289 287 285 283 283
Height
5887 5886 5885 5885 5884 5883 5882 5880 5879 5878 5876 5874 5873 5871 5870 5869 5867 5865 5864 5862 5861 5859 5857 5856 5854 5853 5851 5849 5848 5847 5846 5846 5846 5845 5845 5845 5844 5843
5883 5883 5882 5881 5880 5879 5878 5876 5875 5874 5872 5871 5869 5867 5865 5864 5862 5861 5859 5858 5856 5854 5852 5850 5849 5847 5846 5844 5843 5842 5841 5840 5840 5839 5839 5838 5837 5837
5879 5878 5877 5876 5875 5874 5873 5872 5871 5869 5868 5866 5864 5863 5861 5859 5857 5855 5854 5852 5851 5849 5847 5845 5843 5842 5840 5839 5837 5836 5835 5835 5834 5833 5833 5832 5831 5831
5875 5874 5873 5872 5871 5869 5868 5867 5866 5865 5863 5861 5860 5858 5856 5853 5851 5850 5848 5846 5844 5843 5841 5839 5837 5836 5835 5833 5832 5831 5830 5829 5828 5827 5827 5826 5826 5825
5870 5869 5868 5867 5866 5864 5863 5862 5860 5859 5857 5856 5854 5852 5850 5847 5846 5843 5841 5839 5837 5836 5834 5833 5831 5830 5828 5827 5826 5825 5824 5823 5822 5821 5821 5820 5819 5819
5865 5864 5863 5862 5860 5859 5857 5856 5854 5853 5852 5850 5848 5846 5843 5841 5839 5837 5835 5832 5831 5829 5827 5826 5825 5823 5822 5821 5820 5819 5817 5817 5816 5815 5814 5814 5813 5812
5860 5859 5857 5856 5855 5853 5852 5850 5849 5847 5845 5843 5841 5839 5837 5835 5833 5830 5828 5825 5823 5821 5820 5819 5818 5817 5815 5814 5813 5812 5811 5810 5809 5809 5808 5807 5807 5806
5854 5853 5852 5850 5849 5848 5846 5844 5843 5841 5839 5837 5835 5833 5830 5828 5825 5823 5821 5819 5817 5815 5813 5812 5811 5810 5808 5808 5806 5805 5804 5803 5803 5802 5801 5801 5800 5799
5848 5847 5846 5845 5843 5842 5840 5838 5836 5834 5833 5831 5828 5826 5823 5821 5819 5816 5813 5811 5809 5807 5806 5805 5803 5802 5801 5801 5799 5798 5797 5796 5795 5795 5794 5794 5793 5792
5842 5841 5840 5838 5837 5835 5834 5832 5830 5828 5826 5823 5821 5819 5816 5814 5812 5809 5807 5804 5802 5801 5799 5798 5796 5795 5794 5793 5792 5791 5790 5789 5789 5788 5787 5787 5786 5785
5836 5835 5834 5832 5831 5829 5827 5825 5823 5821 5818 5816 5814 5812 5809 5807 5805 5802 5800 5798 5796 5794 5792 5790 5789 5788 5787 5786 5785 5784 5783 5782 5782 5781 5780 5779 5778 5778
5830 5828 5827 5826 5824 5822 5820 5818 5816 5814 5811 5809 5807 5805 5802 5800 5798 5795 5793 5791 5789 5787 5785 5784 5782 5781 5780 5779 5778 5777 5776 5776 5775 5774 5773 5772 5771 5770
5823 5822 5820 5819 5817 5815 5813 5811 5809 5806 5804 5802 5800 5798 5795 5793 5791 5788 5786 5784 5782 5780 5779 5778 5776 5775 5774 5772 5771 5770 5769 5769 5768 5767 5766 5765 5764 5763
5816 5815 5813 5811 5809 5807 5805 5803 5801 5799 5797 5794 5792 5790 5788 5786 5784 5782 5779 5777 5776 5774 5773 5771 5770 5768 5767 5766 5764 5763 5762 5761 5760 5760 5758 5757 5756 5755
5809 5808 5806 5804 5802 5800 5798 5796 5794 5792 5789 5787 5785 5783 5781 5779 5777 5775 5773 5771 5769 5768 5766 5764 5763 5762 5760 5759 5757 5756 5755 5753 5752 5752 5751 5750 5749 5747
5802 5800 5798 5796 5794 5792 5790 5788 5786 5784 5782 5780 5778 5776 5774 5772 5770 5768 5766 5765 5763 5761 5759 5758 5756 5755 5754 5752 5750 5749 5747 5746 5745 5743 5743 5742 5741 5740
5794 5792 5790 5788 5786 5784 5783 5781 5779 5777 5775 5773 5771 5769 5767 5765 5763 5761 5759 5757 5756 5754 5752 5751 5750 5748 5747 5745 5743 5741 5739 5738 5737 5735 5735 5734 5733 5732
5786 5784 5782 5780 5778 5777 5775 5773 5771 5769 5767 5765 5763 5761 5759 5757 5755 5754 5752 5750 5749 5747 5746 5744 5742 5741 5740 5738 5736 5734 5732 5731 5729 5728 5727 5726 5726 5724
5777 5776 5774 5772 5771 5769 5767 5765 5763 5761 5759 5757 5755 5753 5752 5750 5748 5746 5744 5743 5742 5740 5739 5737 5735 5733 5732 5730 5728 5726 5724 5723 5722 5721 5720 5719 5718 5716
5769 5768 5766 5764 5763 5761 5759 5757 5755 5753 5751 5750 5748 5746 5744 5742 5740 5739 5737 5736 5734 5732 5731 5729 5728 5726 5724 5723 5721 5719 5717 5716 5714 5713 5712 5711 5710 5708
5760 5759 5757 5756 5754 5752 5751 5749 5747 5746 5744 5742 5740 5738 5736 5735 5733 5731 5730 5728 5727 5725 5724 5722 5720 5719 5717 5715 5713 5711 5709 5708 5707 5705 5704 5703 5701 5700
5751 5750 5749 5747 5746 5744 5742 5741 5739 5738 5736 5734 5732 5731 5729 5727 5726 5724 5722 5720 5719 5717 5716 5714 5713 5711 5709 5708 5706 5704 5702 5701 5699 5698 5696 5695 5694 5692
5742 5741 5740 5739 5737 5736 5734 5733 5731 5730 5728 5727 5725 5723 5722 5720 5718 5716 5714 5712 5711 5709 5708 5706 5705 5703 5702 5700 5698 5696 5695 5693 5692 5690 5689 5688 5687 5685